Time,TemperatureF,DewpointF,PressureIn,WindDirection,WindDirectionDegrees,WindSpeedMPH,WindSpeedGustMPH,Humidity,HourlyPrecipIn,Conditions,Clouds,dailyrainin,SoftwareType,DateUTC
2013-05-25 00:00:00,49.7,38.0,30.54,WNW,293,0.0,0.0,64,0.00,,,0.00,WUHU216HW,2013-05-25 05:00:00,
2013-05-25 00:05:00,49.7,38.0,30.54,WNW,293,0.0,0.0,64,0.00,,,0.00,WUHU216HW,2013-05-25 05:05:00,
2013-05-25 00:30:00,48.1,36.5,30.55,SSW,203,0.0,0.0,64,0.00,,,0.00,WUHU216HW,2013-05-25 05:30:00,
2013-05-25 00:35:00,48.1,36.5,30.55,SSW,203,0.0,0.0,64,0.00,,,0.00,WUHU216HW,2013-05-25 05:35:00,
2013-05-25 01:00:00,47.7,37.3,30.56,NW,315,0.0,0.0,67,0.00,,,0.00,WUHU216HW,2013-05-25 06:00:00,
2013-05-25 01:05:00,47.7,37.3,30.56,NW,315,0.0,0.0,67,0.00,,,0.00,WUHU216HW,2013-05-25 06:05:00,
2013-05-25 01:30:00,47.2,37.2,30.56,NNE,23,0.0,0.0,68,0.00,,,0.00,WUHU216HW,2013-05-25 06:30:00,
2013-05-25 01:35:00,47.2,37.2,30.56,NNE,23,0.0,0.0,68,0.00,,,0.00,WUHU216HW,2013-05-25 06:35:00,
2013-05-25 02:00:00,46.4,37.6,30.56,SSE,158,0.0,0.0,71,0.00,,,0.00,WUHU216HW,2013-05-25 07:00:00,
2013-05-25 02:05:00,46.4,37.6,30.56,SSE,158,0.0,0.0,71,0.00,,,0.00,WUHU216HW,2013-05-25 07:05:00,
2013-05-25 02:30:00,46.8,38.3,30.55,SE,135,1.1,1.1,72,0.00,,,0.00,WUHU216HW,2013-05-25 07:30:00,
2013-05-25 02:35:00,46.8,38.3,30.55,SE,135,1.1,1.1,72,0.00,,,0.00,WUHU216HW,2013-05-25 07:35:00,
2013-05-25 03:00:00,47.9,39.6,30.55,SE,135,1.8,1.8,73,0.00,,,0.00,WUHU216HW,2013-05-25 08:00:00,
2013-05-25 03:05:00,47.9,39.6,30.55,SE,135,1.8,1.8,73,0.00,,,0.00,WUHU216HW,2013-05-25 08:05:00,
2013-05-25 03:30:00,47.7,39.4,30.55,ESE,113,2.0,2.0,73,0.00,,,0.00,WUHU216HW,2013-05-25 08:30:00,
2013-05-25 03:35:00,47.7,39.4,30.55,ESE,113,2.0,2.0,73,0.00,,,0.00,WUHU216HW,2013-05-25 08:35:00,
2013-05-25 04:00:00,47.2,38.6,30.54,SSE,158,3.1,3.1,72,0.00,,,0.00,WUHU216HW,2013-05-25 09:00:00,
2013-05-25 04:05:00,47.2,38.6,30.54,SSE,158,3.1,3.1,72,0.00,,,0.00,WUHU216HW,2013-05-25 09:05:00,
2013-05-25 04:30:00,47.0,38.8,30.55,ESE,113,1.8,1.8,73,0.00,,,0.00,WUHU216HW,2013-05-25 09:30:00,
2013-05-25 04:35:00,47.0,38.8,30.55,ESE,113,1.8,1.8,73,0.00,,,0.00,WUHU216HW,2013-05-25 09:35:00,
2013-05-25 04:59:00,46.1,37.9,30.56,SSE,158,2.5,2.5,73,0.00,,,0.00,WUHU216HW,2013-05-25 09:59:00,
2013-05-25 05:04:00,46.1,37.9,30.56,SSE,158,2.5,2.5,73,0.00,,,0.00,WUHU216HW,2013-05-25 10:04:00,
2013-05-25 05:09:00,46.1,37.9,30.56,SSE,158,2.5,2.5,73,0.00,,,0.00,WUHU216HW,2013-05-25 10:09:00,
2013-05-25 05:30:00,45.5,37.4,30.58,SSE,158,1.1,1.1,73,0.00,,,0.00,WUHU216HW,2013-05-25 10:30:00,
2013-05-25 05:35:00,45.5,37.4,30.58,SSE,158,1.1,1.1,73,0.00,,,0.00,WUHU216HW,2013-05-25 10:35:00,
2013-05-25 05:59:00,46.6,38.4,30.59,SE,135,2.2,2.2,73,0.00,,,0.00,WUHU216HW,2013-05-25 10:59:00,
2013-05-25 06:04:00,46.6,38.4,30.59,SE,135,2.2,2.2,73,0.00,,,0.00,WUHU216HW,2013-05-25 11:04:00,
2013-05-25 06:09:00,46.6,38.4,30.59,SE,135,2.2,2.2,73,0.00,,,0.00,WUHU216HW,2013-05-25 11:09:00,
2013-05-25 06:30:00,48.1,39.8,30.60,SE,135,4.3,4.3,73,0.00,,,0.00,WUHU216HW,2013-05-25 11:30:00,
2013-05-25 06:35:00,48.1,39.8,30.60,SE,135,4.3,4.3,73,0.00,,,0.00,WUHU216HW,2013-05-25 11:35:00,
2013-05-25 06:59:00,48.6,40.0,30.61,SSE,158,1.6,1.6,72,0.00,,,0.00,WUHU216HW,2013-05-25 11:59:00,
2013-05-25 07:04:00,48.6,40.0,30.61,South,180,1.8,1.8,72,0.00,,,0.00,WUHU216HW,2013-05-25 12:04:00,
2013-05-25 07:10:00,48.6,40.0,30.61,South,180,1.8,1.8,72,0.00,,,0.00,WUHU216HW,2013-05-25 12:10:00,
2013-05-25 07:30:00,51.7,41.5,30.61,SSE,158,3.6,3.6,68,0.00,,,0.00,WUHU216HW,2013-05-25 12:30:00,
2013-05-25 07:35:00,51.7,41.5,30.61,SSE,158,3.6,3.6,68,0.00,,,0.00,WUHU216HW,2013-05-25 12:35:00,
2013-05-25 07:59:00,52.9,41.1,30.61,SSE,158,6.9,6.9,64,0.00,,,0.00,WUHU216HW,2013-05-25 12:59:00,
2013-05-25 08:04:00,52.9,41.1,30.61,SSE,158,6.9,6.9,64,0.00,,,0.00,WUHU216HW,2013-05-25 13:04:00,
2013-05-25 08:10:00,52.9,41.1,30.61,SSE,158,6.9,6.9,64,0.00,,,0.00,WUHU216HW,2013-05-25 13:10:00,
2013-05-25 08:30:00,55.4,42.2,30.60,SE,135,5.1,5.1,61,0.00,,,0.00,WUHU216HW,2013-05-25 13:30:00,
2013-05-25 08:35:00,55.4,42.2,30.60,SE,135,5.1,5.1,61,0.00,,,0.00,WUHU216HW,2013-05-25 13:35:00,
2013-05-25 08:59:00,61.0,43.3,30.60,ESE,113,5.4,5.4,52,0.00,,,0.00,WUHU216HW,2013-05-25 13:59:00,
2013-05-25 09:05:00,61.0,42.8,30.60,SE,135,5.4,5.4,51,0.00,,,0.00,WUHU216HW,2013-05-25 14:05:00,
2013-05-25 09:10:00,61.0,42.8,30.60,SE,135,5.4,5.4,51,0.00,,,0.00,WUHU216HW,2013-05-25 14:10:00,
2013-05-25 09:30:00,63.0,42.9,30.58,SSW,203,2.7,2.7,48,0.00,,,0.00,WUHU216HW,2013-05-25 14:30:00,
2013-05-25 09:35:00,63.0,42.9,30.58,SSW,203,2.7,2.7,48,0.00,,,0.00,WUHU216HW,2013-05-25 14:35:00,
2013-05-25 09:59:00,60.8,42.1,30.59,SE,135,6.3,6.3,50,0.00,,,0.00,WUHU216HW,2013-05-25 14:59:00,
2013-05-25 10:04:00,60.8,42.1,30.59,SE,135,6.3,6.3,50,0.00,,,0.00,WUHU216HW,2013-05-25 15:04:00,
2013-05-25 10:30:00,61.0,42.3,30.59,SW,225,4.0,4.0,50,0.00,,,0.00,WUHU216HW,2013-05-25 15:30:00,
2013-05-25 10:35:00,61.0,42.3,30.59,SW,225,4.0,4.0,50,0.00,,,0.00,WUHU216HW,2013-05-25 15:35:00,
2013-05-25 11:00:00,62.3,41.7,30.58,SSE,158,5.8,5.8,47,0.00,,,0.00,WUHU216HW,2013-05-25 16:00:00,
2013-05-25 11:05:00,62.3,41.7,30.58,SSE,158,5.8,5.8,47,0.00,,,0.00,WUHU216HW,2013-05-25 16:05:00,
2013-05-25 11:30:00,64.1,41.6,30.59,SSE,158,6.3,6.3,44,0.00,,,0.00,WUHU216HW,2013-05-25 16:30:00,
2013-05-25 11:35:00,64.1,41.6,30.59,SSE,158,6.3,6.3,44,0.00,,,0.00,WUHU216HW,2013-05-25 16:35:00,
2013-05-25 11:59:00,65.0,42.4,30.58,SSW,203,3.4,3.4,44,0.00,,,0.00,WUHU216HW,2013-05-25 16:59:00,
2013-05-25 12:04:00,65.0,42.4,30.58,SSW,203,3.4,3.4,44,0.00,,,0.00,WUHU216HW,2013-05-25 17:04:00,
2013-05-25 12:30:00,64.1,41.1,30.58,ESE,113,9.2,9.2,43,0.00,,,0.00,WUHU216HW,2013-05-25 17:30:00,
2013-05-25 12:35:00,64.1,41.1,30.58,ESE,113,9.2,9.2,43,0.00,,,0.00,WUHU216HW,2013-05-25 17:35:00,
2013-05-25 13:00:00,65.2,42.0,30.58,SE,135,2.7,2.7,43,0.00,,,0.00,WUHU216HW,2013-05-25 18:00:00,
2013-05-25 13:05:00,65.2,42.0,30.58,SE,135,2.7,2.7,43,0.00,,,0.00,WUHU216HW,2013-05-25 18:05:00,
2013-05-25 13:30:00,65.9,40.1,30.57,ESE,113,3.4,3.4,39,0.00,,,0.00,WUHU216HW,2013-05-25 18:30:00,
2013-05-25 13:35:00,65.9,40.1,30.57,ESE,113,3.4,3.4,39,0.00,,,0.00,WUHU216HW,2013-05-25 18:35:00,
2013-05-25 14:00:00,66.2,39.8,30.57,West,270,2.9,2.9,38,0.00,,,0.00,WUHU216HW,2013-05-25 19:00:00,
2013-05-25 14:05:00,66.2,39.8,30.57,West,270,2.9,2.9,38,0.00,,,0.00,WUHU216HW,2013-05-25 19:05:00,
2013-05-25 14:30:00,66.6,39.3,30.56,SE,135,8.5,8.5,37,0.00,,,0.00,WUHU216HW,2013-05-25 19:30:00,
2013-05-25 14:35:00,66.6,39.3,30.56,SE,135,8.5,8.5,37,0.00,,,0.00,WUHU216HW,2013-05-25 19:35:00,
2013-05-25 15:00:00,68.2,41.5,30.56,SSE,158,2.7,2.7,38,0.00,,,0.00,WUHU216HW,2013-05-25 20:00:00,
2013-05-25 15:05:00,68.2,41.5,30.56,SSE,158,2.7,2.7,38,0.00,,,0.00,WUHU216HW,2013-05-25 20:05:00,
2013-05-25 15:30:00,67.0,39.0,30.56,SE,135,1.8,1.8,36,0.00,,,0.00,WUHU216HW,2013-05-25 20:30:00,
2013-05-25 15:35:00,67.0,39.0,30.56,SE,135,1.8,1.8,36,0.00,,,0.00,WUHU216HW,2013-05-25 20:35:00,
2013-05-25 16:00:00,67.0,40.4,30.55,SE,135,2.5,2.5,38,0.00,,,0.00,WUHU216HW,2013-05-25 21:00:00,
2013-05-25 16:05:00,67.0,40.4,30.55,SE,135,2.5,2.5,38,0.00,,,0.00,WUHU216HW,2013-05-25 21:05:00,
2013-05-25 16:30:00,67.3,40.8,30.55,SSE,158,7.6,7.6,38,0.00,,,0.00,WUHU216HW,2013-05-25 21:30:00,
2013-05-25 16:35:00,67.3,40.8,30.55,SSE,158,7.6,7.6,38,0.00,,,0.00,WUHU216HW,2013-05-25 21:35:00,
2013-05-25 16:59:00,67.3,41.5,30.54,WSW,248,0.7,0.7,39,0.00,,,0.00,WUHU216HW,2013-05-25 21:59:00,
2013-05-25 17:04:00,67.3,41.5,30.54,WSW,248,0.7,0.7,39,0.00,,,0.00,WUHU216HW,2013-05-25 22:04:00,
2013-05-25 17:30:00,67.0,39.7,30.53,WSW,248,2.7,2.7,37,0.00,,,0.00,WUHU216HW,2013-05-25 22:30:00,
2013-05-25 17:35:00,67.0,39.7,30.53,WSW,248,2.7,2.7,37,0.00,,,0.00,WUHU216HW,2013-05-25 22:35:00,
2013-05-25 17:59:00,66.6,39.3,30.53,WSW,248,0.4,0.4,37,0.00,,,0.00,WUHU216HW,2013-05-25 22:59:00,
2013-05-25 18:04:00,66.6,39.3,30.53,WSW,248,0.4,0.4,37,0.00,,,0.00,WUHU216HW,2013-05-25 23:04:00,
2013-05-25 18:30:00,65.7,39.3,30.52,NW,315,2.0,2.0,38,0.00,,,0.00,WUHU216HW,2013-05-25 23:30:00,
2013-05-25 18:35:00,65.7,39.3,30.52,NW,315,2.0,2.0,38,0.00,,,0.00,WUHU216HW,2013-05-25 23:35:00,
2013-05-25 18:59:00,64.8,39.3,30.52,WSW,248,1.8,1.8,39,0.00,,,0.00,WUHU216HW,2013-05-25 23:59:00,
2013-05-25 19:05:00,64.6,39.1,30.52,WSW,248,1.1,1.8,39,0.00,,,0.00,WUHU216HW,2013-05-26 00:05:00,
2013-05-25 19:10:00,64.6,39.1,30.52,WSW,248,1.1,1.1,39,0.00,,,0.00,WUHU216HW,2013-05-26 00:10:00,
2013-05-25 19:30:00,63.5,39.3,30.52,SW,225,2.0,2.0,41,0.00,,,0.00,WUHU216HW,2013-05-26 00:30:00,
2013-05-25 19:35:00,63.5,39.3,30.52,SW,225,2.0,2.0,41,0.00,,,0.00,WUHU216HW,2013-05-26 00:35:00,
2013-05-25 19:59:00,62.5,39.5,30.52,SW,225,0.0,0.0,43,0.00,,,0.00,WUHU216HW,2013-05-26 00:59:00,
2013-05-25 20:04:00,62.5,39.5,30.52,SW,225,0.0,0.0,43,0.00,,,0.00,WUHU216HW,2013-05-26 01:04:00,
2013-05-25 20:09:00,62.5,39.5,30.52,SW,225,0.0,0.0,43,0.00,,,0.00,WUHU216HW,2013-05-26 01:09:00,
2013-05-25 20:30:00,60.5,39.5,30.52,West,270,0.0,0.0,46,0.00,,,0.00,WUHU216HW,2013-05-26 01:30:00,
2013-05-25 20:35:00,60.5,39.5,30.52,West,270,0.0,0.0,46,0.00,,,0.00,WUHU216HW,2013-05-26 01:35:00,
2013-05-25 20:59:00,58.7,39.6,30.52,SSW,203,0.0,0.0,49,0.00,,,0.00,WUHU216HW,2013-05-26 01:59:00,
2013-05-25 21:05:00,58.7,39.6,30.52,SSW,203,0.0,0.0,49,0.00,,,0.00,WUHU216HW,2013-05-26 02:05:00,
2013-05-25 21:10:00,58.7,39.6,30.52,SSW,203,0.0,0.0,49,0.00,,,0.00,WUHU216HW,2013-05-26 02:10:00,
2013-05-25 21:30:00,56.3,39.4,30.53,SSW,203,0.0,0.0,53,0.00,,,0.00,WUHU216HW,2013-05-26 02:30:00,
2013-05-25 21:35:00,56.3,39.4,30.53,SSW,203,0.0,0.0,53,0.00,,,0.00,WUHU216HW,2013-05-26 02:35:00,
2013-05-25 21:59:00,54.5,39.1,30.53,SSW,203,0.0,0.0,56,0.00,,,0.00,WUHU216HW,2013-05-26 02:59:00,
2013-05-25 22:05:00,54.5,39.1,30.53,SSW,203,0.0,0.0,56,0.00,,,0.00,WUHU216HW,2013-05-26 03:05:00,
2013-05-25 22:10:00,54.5,39.1,30.53,SSW,203,0.0,0.0,56,0.00,,,0.00,WUHU216HW,2013-05-26 03:10:00,
2013-05-25 22:30:00,54.4,39.4,30.54,South,180,0.9,0.9,57,0.00,,,0.00,WUHU216HW,2013-05-26 03:30:00,
2013-05-25 22:35:00,54.4,39.4,30.54,South,180,0.9,0.9,57,0.00,,,0.00,WUHU216HW,2013-05-26 03:35:00,
2013-05-25 22:59:00,53.3,38.9,30.55,SSE,158,0.4,0.4,58,0.00,,,0.00,WUHU216HW,2013-05-26 03:59:00,
2013-05-25 23:01:00,53.3,38.9,30.55,SSE,158,0.4,0.4,58,0.00,,,0.00,WUHU216HW,2013-05-26 04:01:00,
2013-05-25 23:06:00,53.3,38.9,30.55,SSE,158,0.4,0.4,58,0.00,,,0.00,WUHU216HW,2013-05-26 04:06:00,
2013-05-25 23:30:00,52.6,38.6,30.55,SE,135,0.0,0.0,59,0.00,,,0.00,WUHU216HW,2013-05-26 04:30:00,
2013-05-25 23:35:00,52.6,38.6,30.55,SE,135,0.0,0.0,59,0.00,,,0.00,WUHU216HW,2013-05-26 04:35:00,
2013-05-25 23:59:00,51.5,38.0,30.55,SE,135,0.0,0.0,60,0.00,,,0.00,WUHU216HW,2013-05-26 04:59:00,